Date String (YYYY-MM-DD hh:mm:ss) UTC,Instrument flags,Ambient pressure (hPa),Sample flow (lpm),Bypass flow (lpm),Sample temperature (°C),Ambient temperature (°C),ASC tube jacket temperature (°C),LED temperature (°C),Box temperature (°C),Sample RH (%),Span deviation,Mass concentration (μg/m³),Mass concentration (μg/m³),Mass concentration (μg/m³)
DateTimeUTC,F1_M11,P_M11,Q1_M11,Q2_M11,T1_M11,T2_M11,T3_M11,T4_M11,T5_M11,U1_M11,ZSPAN_M11,X0_M11,X2_M11,X1_M11
2022-09-27 12:00:00,,0833.3,5.01,0.00,30.4,28.7,00.0,39.1,32.1,14.5,0000.0,0009.35,0003.51,0003.10
2022-09-27 12:01:00,,0833.3,4.99,0.00,30.3,28.7,00.0,39.1,32.1,14.5,0000.0,0009.37,0003.48,0003.09
2022-09-27 12:02:00,,0833.3,5.01,0.00,30.3,28.7,00.0,39.1,32.1,14.5,0000.0,0009.75,0003.53,0003.10
2022-09-27 12:03:00,,0833.3,4.99,0.00,30.3,28.7,00.0,39.1,32.1,14.4,0000.0,0009.02,0003.54,0003.10
2022-09-27 12:04:00,,0833.3,4.99,0.00,30.3,28.7,00.0,39.1,32.1,14.5,0000.0,0008.51,0003.54,0003.11
2022-09-27 12:05:00,,0833.3,5.00,0.00,30.3,28.7,00.0,39.1,32.1,14.6,0000.0,0008.23,0003.54,0003.11
2022-09-27 12:06:00,,0833.4,4.99,0.00,30.3,28.6,00.0,39.1,32.1,14.5,0000.0,0007.86,0003.56,0003.11
2022-09-27 12:07:00,,0833.4,5.00,0.00,30.3,28.7,00.0,39.1,32.1,14.5,0000.0,0007.96,0003.59,0003.12
2022-09-27 12:08:00,,0833.4,5.01,0.00,30.3,28.7,00.0,39.1,32.1,14.5,0000.0,0008.02,0003.60,0003.13
2022-09-27 12:09:00,,0833.5,5.00,0.00,30.3,28.7,00.0,39.1,32.1,14.6,0000.0,0007.99,0003.61,0003.14
2022-09-27 12:10:00,,0833.4,5.00,0.00,30.3,28.6,00.0,39.1,32.1,14.5,0000.0,0007.95,0003.60,0003.15
2022-09-27 12:11:00,,0833.4,5.01,0.00,30.3,28.7,00.0,39.1,32.1,14.5,0000.0,0007.90,0003.64,0003.16
2022-09-27 12:12:00,,0833.4,4.99,0.00,30.3,28.7,00.0,39.1,32.1,14.5,0000.0,0008.14,0003.69,0003.17
2022-09-27 12:13:00,,0833.4,5.00,0.00,30.3,28.7,00.0,39.1,32.1,14.6,0000.0,0007.76,0003.66,0003.18
2022-09-27 12:14:00,,0833.4,5.00,0.00,30.3,28.7,00.0,39.1,32.1,14.6,0000.0,0007.77,0003.67,0003.19
2022-09-27 12:15:00,,0833.4,5.01,0.00,30.3,28.7,00.0,39.1,32.1,14.5,0000.0,0007.66,0003.64,0003.19
2022-09-27 12:16:00,,0833.4,4.99,0.00,30.3,28.6,00.0,39.1,32.1,14.5,0000.0,0007.22,0003.65,0003.20
2022-09-27 12:17:00,,0833.4,5.01,0.00,30.3,28.7,00.0,39.1,32.1,14.6,0000.0,0006.95,0003.63,0003.21
2022-09-27 12:18:00,,0833.4,4.99,0.00,30.3,28.6,00.0,39.1,32.0,14.6,0000.0,0006.50,0003.62,0003.21
2022-09-27 12:19:00,,0833.4,5.02,0.00,30.3,28.6,00.0,39.1,32.1,14.6,0000.0,0007.37,0003.65,0003.21
2022-09-27 12:20:00,,0833.4,4.99,0.00,30.3,28.6,00.0,39.1,32.1,14.6,0000.0,0008.18,0003.65,0003.20
2022-09-27 12:21:00,,0833.4,5.01,0.00,30.3,28.6,00.0,39.1,32.1,14.5,0000.0,0008.53,0003.67,0003.21
2022-09-27 12:22:00,,0833.4,4.99,0.00,30.3,28.6,00.0,39.1,32.1,14.5,0000.0,0008.68,0003.67,0003.21
2022-09-27 12:23:00,,0833.4,5.01,0.00,30.3,28.6,00.0,39.1,32.0,14.5,0000.0,0008.41,0003.63,0003.21
2022-09-27 12:24:00,,0833.4,5.00,0.00,30.3,28.6,00.0,39.1,32.0,14.5,0000.0,0008.56,0003.62,0003.21
2022-09-27 12:25:00,,0833.4,5.00,0.00,30.3,28.6,00.0,39.1,32.1,14.5,0000.0,0008.81,0003.58,0003.21
2022-09-27 12:26:00,,0833.4,5.01,0.00,30.3,28.6,00.0,39.1,32.0,14.6,0000.0,0009.33,0003.61,0003.20
2022-09-27 12:27:00,,0833.5,4.99,0.00,30.3,28.6,00.0,39.1,32.0,14.6,0000.0,0009.45,0003.63,0003.20
2022-09-27 12:28:00,,0833.4,5.00,0.00,30.3,28.6,00.0,39.1,32.0,14.6,0000.0,0009.49,0003.64,0003.20
2022-09-27 12:29:00,,0833.5,4.99,0.00,30.3,28.6,00.0,39.1,32.0,14.6,0000.0,0009.95,0003.62,0003.20
2022-09-27 12:30:00,,0833.5,5.01,0.00,30.2,28.6,00.0,39.1,32.0,14.5,0000.0,0009.51,0003.61,0003.20
2022-09-27 12:31:00,,0833.4,4.99,0.00,30.2,28.6,00.0,39.1,32.0,14.5,0000.0,0009.20,0003.62,0003.20
2022-09-27 12:32:00,,0833.4,5.01,0.00,30.2,28.6,00.0,39.1,32.0,14.5,0000.0,0009.26,0003.63,0003.20
2022-09-27 12:33:00,,0833.4,4.99,0.00,30.2,28.6,00.0,39.1,32.0,14.6,0000.0,0009.31,0003.63,0003.19
2022-09-27 12:34:00,,0833.4,5.01,0.00,30.2,28.6,00.0,39.0,32.0,14.7,0000.0,0009.88,0003.64,0003.18
2022-09-27 12:35:00,,0833.4,5.00,0.00,30.2,28.6,00.0,39.0,32.0,14.7,0000.0,0009.71,0003.66,0003.18
2022-09-27 12:36:00,,0833.4,5.00,0.00,30.2,28.6,00.0,39.0,32.0,14.7,0000.0,0009.35,0003.67,0003.19
2022-09-27 12:37:00,,0833.5,4.99,0.00,30.2,28.6,00.0,39.0,32.0,14.7,0000.0,0008.78,0003.63,0003.19
2022-09-27 12:38:00,,0833.4,5.01,0.00,30.2,28.6,00.0,39.0,32.0,14.7,0000.0,0008.66,0003.59,0003.18
2022-09-27 12:39:00,,0833.4,4.99,0.00,30.2,28.6,00.0,39.0,32.0,14.7,0000.0,0008.64,0003.61,0003.18
2022-09-27 12:40:00,,0833.4,5.01,0.00,30.2,28.5,00.0,39.0,32.0,14.7,0000.0,0008.15,0003.61,0003.18
2022-09-27 12:41:00,,0833.4,4.99,0.00,30.2,28.5,00.0,39.0,32.0,14.7,0000.0,0008.13,0003.64,0003.19
2022-09-27 12:42:00,,0833.4,5.01,0.00,30.2,28.5,00.0,39.0,32.0,14.7,0000.0,0007.95,0003.63,0003.18
2022-09-27 12:43:00,,0833.4,4.99,0.00,30.2,28.5,00.0,39.0,32.0,14.7,0000.0,0007.65,0003.63,0003.18
2022-09-27 12:44:00,,0833.5,5.01,0.00,30.2,28.5,00.0,39.0,32.0,14.7,0000.0,0007.51,0003.63,0003.19
2022-09-27 12:45:00,,0833.4,5.00,0.00,30.2,28.5,00.0,39.0,32.0,14.7,0000.0,0007.23,0003.65,0003.21
2022-09-27 12:46:00,,0833.4,5.02,0.00,30.2,28.5,00.0,39.0,32.0,14.7,0000.0,0007.89,0003.65,0003.22
2022-09-27 12:47:00,,0833.4,5.00,0.00,30.2,28.5,00.0,39.0,32.0,14.7,0000.0,0008.25,0003.66,0003.22
2022-09-27 12:48:00,,0833.4,5.00,0.00,30.2,28.5,00.0,39.0,31.9,14.7,0000.0,0008.82,0003.69,0003.22
2022-09-27 12:49:00,,0833.4,5.00,0.00,30.2,28.4,00.0,39.0,31.9,14.7,0000.0,0009.12,0003.70,0003.23
2022-09-27 12:50:00,,0833.4,5.00,0.00,30.2,28.4,00.0,39.0,31.9,14.7,0000.0,0009.57,0003.71,0003.23
2022-09-27 12:51:00,,0833.4,5.00,0.00,30.2,28.5,00.0,39.0,32.0,14.7,0000.0,0009.67,0003.75,0003.24
2022-09-27 12:52:00,,0833.5,5.00,0.00,30.2,28.5,00.0,39.0,32.0,14.7,0000.0,0009.52,0003.74,0003.24
2022-09-27 12:53:00,,0833.5,4.99,0.00,30.2,28.5,00.0,39.0,32.0,14.7,0000.0,0009.59,0003.77,0003.24
2022-09-27 12:54:00,,0833.5,5.01,0.00,30.2,28.4,00.0,39.0,32.0,14.6,0000.0,0009.93,0003.76,0003.23
2022-09-27 12:55:00,,0833.5,4.99,0.00,30.1,28.4,00.0,39.0,32.0,14.7,0000.0,0010.54,0003.77,0003.23
2022-09-27 12:56:00,,0833.5,5.00,0.00,30.1,28.5,00.0,39.0,32.0,14.7,0000.0,0010.23,0003.77,0003.22
2022-09-27 12:57:00,,0833.5,4.99,0.00,30.1,28.4,00.0,39.0,31.9,14.7,0000.0,0009.74,0003.78,0003.22
2022-09-27 12:58:00,,0833.6,5.01,0.00,30.1,28.5,00.0,38.9,32.0,14.7,0000.0,0009.94,0003.81,0003.22
2022-09-27 12:59:00,,0833.5,4.99,0.00,30.1,28.5,00.0,38.9,32.0,14.7,0000.0,0009.79,0003.85,0003.22
